This demonstration page uses our WeatherBlox Daily Observations layout. Learn more.

36.17497, -115.13722

Hourly Observations for June 27, 2020

Temp ( °F °C ) Dew Point ( °F °C ) Humidity (%) Winds ( mph kmh ) Pressure ( in mb ) Visibility ( mi km ) Precip ( " mm )
12:53 am 00:53 Clear 87 30.6 39 3.9 18 18 NW 8 13 29.76 1008 10 16.0934 0 0
1:53 am 01:53 Clear 85 29.4 38 3.3 19 19 N 5 7 29.76 1008 10 16.0934 0 0
2:53 am 02:53 Clear 84 28.9 38 3.3 19 19 Calm 29.75 1008 10 16.0934 0 0
3:53 am 03:53 Clear 82 27.8 38 3.3 21 21 W 5 7 29.76 1008 10 16.0934 0 0
4:53 am 04:53 Clear 80 26.7 41 5 25 25 NW 5 7 29.77 1008 10 16.0934 0 0
5:53 am 05:53 Sunny 80 26.7 40 4.4 24 24 Calm 29.78 1009 10 16.0934 0 0
6:53 am 06:53 Sunny 83 28.3 40 4.4 22 22 WNW 3 6 29.79 1009 10 16.0934 0 0
7:53 am 07:53 Sunny 88 31.1 36 2.2 16 16 NE 3 6 29.8 1009 10 16.0934 0 0
8:53 am 08:53 Sunny 91 32.8 38 3.3 15 15 SE 5 7 29.8 1009 10 16.0934 0 0
9:53 am 09:53 Sunny 95 35 39 3.9 14 14 S 5 7 29.8 1009 10 16.0934 0 0
10:53 am 10:53 Sunny 97 36.1 39 3.9 13 13 ESE 6 9 29.79 1009 10 16.0934 0 0
11:53 am 11:53 Sunny 103 39.4 38 3.3 11 11 S 12 19 29.76 1008 10 16.0934 0 0
12:53 pm 12:53 Sunny 106 41.1 35 1.7 9 9 S 10 17 29.73 1007 10 16.0934 0 0
1:53 pm 13:53 Sunny 108 42.2 34 1.1 8 8 SSE 17 28 29.7 1006 10 16.0934 0 0
2:53 pm 14:53 Sunny 107 41.7 31 -0.6 7 7 SE 8 13 29.66 1004 10 16.0934 0 0
3:53 pm 15:53 Sunny 108 42.2 30 -1.1 7 7 SSE 10 17 29.63 1003 10 16.0934 0 0
4:16 pm 16:16 Sunny 107 41.7 33 0.6 8 8 S 10 17 29.44 997 10 16.0934 0 0
4:53 pm 16:53 Sunny 108 42.2 33 0.6 7 7 S 12 19 29.61 1003 10 16.0934 0 0
5:53 pm 17:53 Sunny 108 42.2 33 0.6 7 7 SSE 18 30 29.58 1002 10 16.0934 0 0
6:53 pm 18:53 Sunny 107 41.7 36 2.2 9 9 SW 17 28 29.57 1002 10 16.0934 0 0
7:53 pm 19:53 Sunny 104 40 35 1.7 9 9 SW 14 22 29.57 1001 10 16.0934 0 0
8:53 pm 20:53 Clear 102 38.9 34 1.1 9 9 SSW 10 17 29.56 1001 10 16.0934 0 0
9:53 pm 21:53 Clear 100 37.8 34 1.1 10 10 S 10 17 29.57 1001 10 16.0934 0 0
10:53 pm 22:53 Clear 98 36.7 40 4.4 13 13 S 12 19 29.56 1001 10 16.0934 0 0
11:53 pm 23:53 Clear 97 36.1 50 10 20 20 SSW 17 28 29.56 1001 10 16.0934 0 0

Powered by AerisWeather